Regional Weather Roundup
Issued by NWS

Home | Current Version | Previous Version | Graphics & Text | Print | Product List | Glossary On
Versions: 1 2 3 4 5 6 7 8 9 10 11 12 13 14 15 16 17 18 19 20 21 22 23 24 25 26 27 28 29 30 31 32 33 34 35 36 37 38 39 40 41 42 43 44 45 46 47 48 49 50
000
ASUS43 KFSD 280310
RWRSD

WEATHER ROUNDUP FOR SOUTH DAKOTA
NATIONAL WEATHER SERVICE SIOUX FALLS SD
1000 PM CDT WED AUG 27 2014

NOTE: "FAIR" INDICATES FEW OR NO CLOUDS BELOW 12,000 FEET WITH NO
SIGNIFICANT WEATHER AND/OR OBSTRUCTIONS TO VISIBILITY.


SDZ001>005-009-010-012>017-280400-
NORTHWEST AND NORTH CENTRAL SOUTH DAKOTA

CITY           SKY/WX    TMP DP  RH WIND       PRES   REMARKS
BUFFALO          N/A     63  60  90 SE7       30.01R
FAITH            N/A     65  64  97 NE5       30.06S
MOBRIDGE       CLOUDY    68  64  87 E9        30.01S
$$

SDZ012>016-024>037-041>051-057-063-072>074-280400-
SOUTHWEST AND SOUTH CENTRAL SOUTH DAKOTA

CITY           SKY/WX    TMP DP  RH WIND       PRES   REMARKS
RAPID CTY ARPT LGT RAIN  63  61  93 SW3       30.08S
PIERRE         LGT RAIN  69  66  90 SE9       30.02R
CUSTER         CLOUDY    58  55  90 N5        30.18S
ELLSWORTH AFB  LGT RAIN  64  63  97 SW6       30.08
PHILIP         RAIN      67  65  93 SW9       30.03R
PINE RIDGE     CLOUDY    65  63  93 NE6       30.06R
WINNER         LGT RAIN  69  67  93 E9        30.05R
$$

SDZ004>011-016>023-039-040-280400-
NORTHEAST SOUTH DAKOTA

CITY           SKY/WX    TMP DP  RH WIND       PRES   REMARKS
ABERDEEN       MOCLDY    65  62  90 E3        30.06R
WATERTOWN      PTCLDY    66  61  84 E6        30.09R
SISSETON         N/A     64  62  93 SE5       30.08R
$$

SDZ017-020-022-023-036>040-048>070-280400-
SOUTHEAST SOUTH DAKOTA

CITY           SKY/WX    TMP DP  RH WIND       PRES   REMARKS
SIOUX FALLS    CLOUDY    69  65  86 E8        30.09R
HURON          MOCLDY    69  64  84 SE6       30.05R
CHAMBERLAIN    CLOUDY    68  66  92 SE7       30.05S
MITCHELL       CLOUDY    68  66  93 SE6       30.06S
YANKTON        CLOUDY    70  66  88 E7        30.07R
$$

ABBREVIATIONS USED IN REMARKS
   TC - TEMPERATURE IN CELSIUS
  WCI - WIND CHILL INDEX
   HX - HEAT INDEX
  VSB - VISIBILITY




USA.gov is the U.S. government's official web portal to all federal, state and local government web resources and services.